PDT,Max TemperatureF,Mean TemperatureF,Min TemperatureF,Max Dew PointF,MeanDew PointF,Min DewpointF,Max Humidity, Mean Humidity, Min Humidity, Max Sea Level PressureIn, Mean Sea Level PressureIn, Min Sea Level PressureIn, Max VisibilityMiles, Mean VisibilityMiles, Min VisibilityMiles, Max Wind SpeedMPH, Mean Wind SpeedMPH, Max Gust SpeedMPH,PrecipitationIn, CloudCover, Events, WindDirDegrees
2013-9-1,91,76,62,57,51,41,72,47,18,29.92,29.88,29.83,10,10,8,18,10,23,0.00,1,,168
2013-9-2,75,72,68,68,61,57,83,71,57,29.95,29.90,29.86,10,9,2,12,9,,0.00,3,Rain,140
2013-9-3,84,73,62,59,53,41,78,56,22,29.98,29.93,29.89,10,10,8,15,9,18,0.00,0,,172
2013-9-4,86,73,60,57,53,41,82,55,20,30.02,29.96,29.89,10,10,7,14,9,22,0.00,0,,175
2013-9-5,86,72,59,55,52,41,88,57,20,29.99,29.95,29.90,10,10,7,14,10,20,0.00,0,,166
2013-9-6,91,73,55,55,49,39,88,48,17,29.98,29.91,29.82,10,10,7,15,6,21,0.00,0,,326
2013-9-7,95,77,59,52,44,36,72,36,13,29.89,29.84,29.77,10,9,5,7,1,,0.00,0,,200
2013-9-8,98,78,59,50,44,32,72,32,10,29.86,29.79,29.71,10,10,8,12,5,16,0.00,0,,329
2013-9-9,98,79,60,54,48,39,63,35,15,29.78,29.71,29.63,10,10,6,12,5,,0.00,0,,191
2013-9-10,87,76,64,57,54,48,77,54,31,29.85,29.75,29.67,10,9,2,17,9,23,0.00,0,,164
2013-9-11,80,70,60,57,56,55,82,66,42,29.98,29.92,29.86,10,10,8,16,11,23,0.00,0,,164
2013-9-12,87,73,59,59,56,50,94,64,29,29.98,29.91,29.83,10,9,1,14,8,,0.00,0,,161
2013-9-13,91,75,59,57,56,54,88,58,28,29.88,29.80,29.69,10,10,9,12,8,,0.00,0,,177
2013-9-14,86,72,59,55,54,52,82,58,35,29.79,29.73,29.67,10,10,9,13,9,16,0.00,0,,169
2013-9-15,87,71,55,55,52,46,82,58,24,29.83,29.78,29.72,10,10,8,15,11,23,0.00,0,,164
2013-9-16,86,72,59,57,54,46,94,61,25,29.89,29.82,29.73,10,10,8,13,8,17,0.00,0,,173
2013-9-17,80,70,59,54,50,43,77,54,26,29.87,29.81,29.78,10,10,9,16,11,22,0.00,0,,185
2013-9-18,84,68,53,52,43,34,77,43,16,29.91,29.85,29.79,10,10,7,16,6,22,0.00,0,,310
2013-9-19,89,72,55,45,42,36,63,38,15,29.87,29.80,29.72,10,10,7,9,4,,0.00,0,,150
2013-9-20,82,70,59,57,49,39,77,50,28,29.85,29.78,29.74,10,10,9,21,10,28,0.00,0,,171
2013-9-21,68,62,57,59,56,54,94,79,60,29.90,29.84,29.80,10,9,1,18,10,23,0.00,4,Rain,165
2013-9-22,73,62,51,55,51,45,94,72,36,30.01,29.96,29.90,10,10,5,9,4,,0.00,2,,315
2013-9-23,80,66,53,57,51,46,88,61,30,30.03,29.97,29.91,10,10,9,9,3,,0.00,0,,266
2013-9-24,78,68,59,57,52,46,82,60,34,29.97,29.91,29.83,10,10,7,17,9,23,0.00,0,,164
2013-9-25,71,61,51,52,42,32,88,52,23,29.93,29.87,29.80,10,10,9,20,7,25,0.00,2,,311
2013-9-26,73,60,48,41,37,32,71,44,22,29.99,29.88,29.83,10,10,10,22,12,28,0.00,0,,327
2013-9-27,77,60,44,41,36,32,76,44,19,30.11,30.05,29.99,10,10,9,14,5,17,0.00,0,,319
2013-9-28,82,66,50,48,36,27,66,35,14,30.11,30.05,29.98,10,10,8,12,5,,0.00,0,,162
2013-9-29,77,67,57,57,54,48,88,66,44,30.11,30.07,30.03,10,10,9,15,9,22,0.00,0,,174
2013-9-30,77,68,60,57,57,57,88,68,50,30.08,30.02,29.95,10,10,9,14,9,18,0.00,2,,174